Location: Baia de Cri?
(46.1667°N, 22.7167°E)
Time: 23:46:32
(UTC+00:00)

Cosmos 1743 Rocket - Visible Passes

Search period start: 18 April 2026 00:00
Search period end: 28 April 2026 00:00
Orbit: 599 x 624 km, 82.6° (Epoch: 18 April)

Date Brightness Start Highest point End Pass type
(mag) Time Alt. Az. Time Alt. Az. Time Alt. Az.
19 Apr 7.1 01:48:43 10° NE 01:49:56 11° ENE 01:51:07 10° E visible
20 Apr 6.6 02:02:09 10° NNE 02:05:09 18° ENE 02:08:07 10° ESE visible
20 Apr 7.6 17:52:51 10° WNW 17:53:52 11° WNW 17:54:52 10° NW visible
21 Apr 5.8 02:16:28 10° NNE 02:20:17 28° ENE 02:24:04 10° SE visible
22 Apr 4.8 02:31:05 10° N 02:35:21 46° ENE 02:39:32 10° SSE visible
23 Apr 3.7 02:45:53 10° N 02:50:19 81° E 02:54:40 10° S visible
24 Apr 6.6 01:24:29 10° NNE 01:27:04 15° ENE 01:29:37 10° ESE visible
25 Apr 6.0 01:38:39 10° NNE 01:42:14 24° ENE 01:45:46 10° SE visible
26 Apr 5.0 01:53:10 10° N 01:57:18 39° ENE 02:01:23 10° SE visible
27 Apr 3.9 02:07:55 10° N 02:12:18 67° E 02:16:36 10° SSE visible
